Location: Cahas Mountain Overlook
(37.0833°N, 80.1000°W)
Time: 08:05:53
(UTC-05:00)

ARIANE 6 FM1 Upper Stage - Pass Details

Date: 25 January 2026
Orbit: 522 x 609 km, 62.0° (Epoch: 13 February)

Event Time Altitude Azimuth Distance (km) Brightness Sun altitude
Rises 18:55:30 0° 248° (WSW) 2,711 7.9 -15.6°
Reaches altitude 10° 18:58:11 10° 265° (W) 1,805 6.6 -16.1°
Maximum altitude 19:01:14 20° 314° (NW) 1,265 4.9 -16.7°
Drops below altitude 10° 19:04:16 10° 3° (N) 1,781 5.1 -17.3°
Enters shadow 19:04:59 - 10° (N) 2,001 5.3 -17.4°
